AFL2120 UUEE-LTFE

Flight info

Callsign AFL2120
Flight time N/A
Altitude 33000
Route N0460F330 TOGMO M56 ABAGI B105 NIMTA/K0841F340 B105 NATIT DCT MOLED N50 LIDUS G242 ZG DCT ITAKA DCT AMKOL DCT GOTIK DCT MEMZA DCT BINOL G487 ODIRA UW96 SIN UT61 BAG UP29 HALIL UT54 KFK UN136 CRD UW95 KAVAK
Aircraft B738/M-VGDW/C

Departure

Time N/A
Airport Sheremetyevo International Airport (UUEE)

Arrival

Time 2026-04-26 17:43
Airport Milas Bodrum International Airport (LTFE)
Time Latitude Longitude Altitude Speed Heading
2026-04-26 16:54 39.38886 32.33762 35995 ft 452 kts 233°
2026-04-26 16:54 39.37236 32.30310 35978 ft 451 kts 247°
2026-04-26 16:54 39.34925 32.22801 35993 ft 450 kts 249°
2026-04-26 16:55 39.32614 32.15234 35983 ft 450 kts 249°
2026-04-26 16:55 39.30263 32.07728 35991 ft 451 kts 248°
2026-04-26 16:56 39.26711 31.96532 35992 ft 452 kts 248°
2026-04-26 16:57 39.24314 31.88991 35995 ft 452 kts 248°
2026-04-26 16:57 39.20596 31.77807 35985 ft 453 kts 244°
2026-04-26 16:58 39.18157 31.71828 35995 ft 453 kts 242°
2026-04-26 16:59 39.13145 31.59884 35987 ft 454 kts 243°
2026-04-26 17:00 39.07239 31.45544 35988 ft 455 kts 243°
2026-04-26 17:00 39.02794 31.34750 35999 ft 455 kts 243°
2026-04-26 17:01 38.99823 31.27565 36001 ft 454 kts 243°
2026-04-26 17:01 38.96856 31.20410 35998 ft 453 kts 243°
2026-04-26 17:02 38.93890 31.13269 36006 ft 453 kts 243°
2026-04-26 17:02 38.90920 31.06135 36015 ft 453 kts 243°
2026-04-26 17:03 38.87948 30.99014 36021 ft 453 kts 243°
2026-04-26 17:03 38.84970 30.91895 36017 ft 453 kts 243°
2026-04-26 17:04 38.81975 30.84748 36025 ft 458 kts 243°
2026-04-26 17:04 38.78934 30.77511 36016 ft 463 kts 243°
2026-04-26 17:05 38.75871 30.70234 36000 ft 464 kts 243°
2026-04-26 17:05 38.72799 30.62960 35995 ft 465 kts 242°
2026-04-26 17:06 38.69053 30.56226 36002 ft 465 kts 231°
2026-04-26 17:06 38.64867 30.49902 35992 ft 466 kts 231°
2026-04-26 17:07 38.61389 30.44563 35977 ft 466 kts 231°
2026-04-26 17:07 38.57282 30.38157 35996 ft 466 kts 231°
2026-04-26 17:08 38.53030 30.31901 35988 ft 467 kts 223°
2026-04-26 17:08 38.47788 30.27111 36009 ft 468 kts 213°
2026-04-26 17:09 38.43176 30.23393 36000 ft 468 kts 213°
2026-04-26 17:09 38.36823 30.18143 35996 ft 468 kts 214°
2026-04-26 17:10 38.31369 30.13600 35991 ft 468 kts 213°
2026-04-26 17:10 38.25872 30.09038 35984 ft 468 kts 213°
2026-04-26 17:11 38.20444 30.04540 35994 ft 469 kts 213°
2026-04-26 17:11 38.14980 30.00020 35990 ft 469 kts 213°
2026-04-26 17:12 38.06738 29.93212 35992 ft 469 kts 213°
2026-04-26 17:13 37.98563 29.86463 35989 ft 470 kts 213°
2026-04-26 17:14 37.90334 29.79695 35990 ft 470 kts 213°
2026-04-26 17:14 37.82122 29.72903 35980 ft 470 kts 218°
2026-04-26 17:15 37.77546 29.66997 35993 ft 467 kts 235°
2026-04-26 17:15 37.75848 29.63510 35993 ft 466 kts 242°
2026-04-26 17:16 37.72785 29.56290 35990 ft 466 kts 243°
2026-04-26 17:16 37.69720 29.49111 35964 ft 455 kts 242°
2026-04-26 17:16 37.68226 29.45671 35971 ft 440 kts 242°
2026-04-26 17:17 37.66771 29.42344 35963 ft 426 kts 242°
2026-04-26 17:17 37.65353 29.39109 35891 ft 415 kts 242°
2026-04-26 17:17 37.63973 29.35962 35754 ft 406 kts 242°
2026-04-26 17:17 37.62610 29.32853 35347 ft 405 kts 242°
2026-04-26 17:18 37.61242 29.29733 34786 ft 412 kts 242°
2026-04-26 17:18 37.59822 29.26496 34226 ft 434 kts 242°
2026-04-26 17:18 37.58319 29.23085 33627 ft 456 kts 242°
2026-04-26 17:18 37.56735 29.19550 33010 ft 466 kts 241°
2026-04-26 17:19 37.53506 29.12434 31534 ft 470 kts 241°
2026-04-26 17:19 37.51886 29.08863 30784 ft 470 kts 241°
2026-04-26 17:19 37.50265 29.05283 30036 ft 470 kts 241°
2026-04-26 17:20 37.48640 29.01696 29154 ft 473 kts 241°
2026-04-26 17:20 37.47558 28.99310 28577 ft 474 kts 241°
2026-04-26 17:20 37.45363 28.94482 27413 ft 475 kts 241°
2026-04-26 17:20 37.43718 28.90867 26547 ft 476 kts 241°
2026-04-26 17:21 37.42073 28.87258 25669 ft 476 kts 241°
2026-04-26 17:21 37.40427 28.83650 24797 ft 475 kts 241°
2026-04-26 17:21 37.38787 28.80057 23921 ft 473 kts 240°
2026-04-26 17:21 37.37149 28.76470 23051 ft 472 kts 240°
2026-04-26 17:22 37.35516 28.72900 22173 ft 470 kts 240°
2026-04-26 17:22 37.33915 28.69368 21330 ft 463 kts 241°
2026-04-26 17:22 37.32377 28.65946 21093 ft 436 kts 241°
2026-04-26 17:22 37.30924 28.62710 20805 ft 414 kts 241°
2026-04-26 17:23 37.29540 28.59631 20541 ft 395 kts 241°
2026-04-26 17:23 37.28216 28.56688 20271 ft 379 kts 241°
2026-04-26 17:23 37.26946 28.53869 20003 ft 364 kts 241°
2026-04-26 17:23 37.25729 28.51153 19730 ft 349 kts 241°
2026-04-26 17:24 37.24550 28.48545 19476 ft 339 kts 241°
2026-04-26 17:24 37.23395 28.45997 19231 ft 334 kts 241°
2026-04-26 17:24 37.22252 28.43477 18983 ft 330 kts 241°
2026-04-26 17:24 37.21127 28.40994 18724 ft 326 kts 241°
2026-04-26 17:25 37.20013 28.38539 18486 ft 322 kts 241°
2026-04-26 17:25 37.18913 28.36113 18226 ft 318 kts 241°
2026-04-26 17:25 37.17826 28.33715 18015 ft 313 kts 241°
2026-04-26 17:25 37.16759 28.31367 17968 ft 308 kts 240°
2026-04-26 17:26 37.15700 28.29040 17973 ft 308 kts 241°
2026-04-26 17:26 37.14633 28.26694 17864 ft 314 kts 240°
2026-04-26 17:26 37.13535 28.24298 17546 ft 318 kts 240°
2026-04-26 17:26 37.12434 28.21885 17272 ft 321 kts 241°
2026-04-26 17:27 37.11315 28.19472 16924 ft 320 kts 240°
2026-04-26 17:27 37.10197 28.17052 16620 ft 321 kts 240°
2026-04-26 17:27 37.09086 28.14631 16303 ft 319 kts 240°
2026-04-26 17:27 37.07983 28.12226 15986 ft 318 kts 240°
2026-04-26 17:28 37.07029 28.09754 15643 ft 316 kts 257°
2026-04-26 17:28 37.06883 28.07053 15358 ft 310 kts 279°
2026-04-26 17:28 37.07278 28.04463 15084 ft 306 kts 284°
2026-04-26 17:28 37.07751 28.01841 14767 ft 305 kts 284°
2026-04-26 17:29 37.08223 27.99265 14469 ft 303 kts 284°
2026-04-26 17:29 37.08531 27.97563 14279 ft 302 kts 284°
2026-04-26 17:29 37.09141 27.94143 13877 ft 300 kts 284°
2026-04-26 17:29 37.09587 27.91599 13589 ft 298 kts 284°
2026-04-26 17:30 37.10027 27.89068 13289 ft 297 kts 283°
2026-04-26 17:30 37.10464 27.86545 12998 ft 295 kts 283°
2026-04-26 17:30 37.10907 27.84032 12714 ft 296 kts 284°
2026-04-26 17:30 37.11338 27.81502 12419 ft 297 kts 283°
2026-04-26 17:31 37.11767 27.78980 12128 ft 295 kts 283°
2026-04-26 17:31 37.12228 27.76485 11790 ft 295 kts 286°
2026-04-26 17:31 37.12806 27.74017 11431 ft 295 kts 288°
2026-04-26 17:31 37.13413 27.71564 11076 ft 295 kts 288°
2026-04-26 17:32 37.14020 27.69129 10708 ft 292 kts 288°
2026-04-26 17:32 37.14614 27.66693 10355 ft 292 kts 288°
2026-04-26 17:32 37.15200 27.64259 9988 ft 290 kts 288°
2026-04-26 17:32 37.15772 27.61867 9617 ft 283 kts 288°
2026-04-26 17:33 37.16328 27.59534 9276 ft 276 kts 288°
2026-04-26 17:33 37.16875 27.57255 8959 ft 269 kts 288°
2026-04-26 17:33 37.17399 27.55039 8622 ft 261 kts 287°
2026-04-26 17:34 37.18404 27.50806 8023 ft 244 kts 288°
2026-04-26 17:34 37.18878 27.48808 7725 ft 234 kts 288°
2026-04-26 17:34 37.19329 27.46902 7450 ft 222 kts 288°
2026-04-26 17:34 37.19759 27.45087 7174 ft 212 kts 288°
2026-04-26 17:35 37.20169 27.43359 6915 ft 202 kts 288°
2026-04-26 17:35 37.20563 27.41694 6683 ft 197 kts 288°
2026-04-26 17:35 37.20952 27.40049 6460 ft 198 kts 288°
2026-04-26 17:35 37.21347 27.38381 6257 ft 200 kts 288°
2026-04-26 17:36 37.21747 27.36716 6003 ft 199 kts 289°
2026-04-26 17:36 37.22157 27.35063 5758 ft 198 kts 296°
2026-04-26 17:36 37.23082 27.33865 5498 ft 197 kts 341°
2026-04-26 17:36 37.24408 27.33826 5305 ft 190 kts 12°
2026-04-26 17:37 37.25616 27.34519 4937 ft 200 kts 43°
2026-04-26 17:37 37.26533 27.35791 4645 ft 197 kts 36°
2026-04-26 17:37 37.27680 27.36627 4451 ft 184 kts 27°
2026-04-26 17:38 37.29821 27.38220 4094 ft 177 kts 28°
2026-04-26 17:38 37.30805 27.39183 3930 ft 185 kts 51°
2026-04-26 17:38 37.31094 27.40720 3807 ft 187 kts 97°
2026-04-26 17:38 37.30827 27.42323 3670 ft 189 kts 101°
2026-04-26 17:39 37.30501 27.43924 3603 ft 190 kts 103°
2026-04-26 17:39 37.30133 27.45528 3470 ft 190 kts 104°
2026-04-26 17:39 37.29761 27.47085 3175 ft 181 kts 104°
2026-04-26 17:39 37.29406 27.48561 2913 ft 173 kts 104°
2026-04-26 17:40 37.29063 27.49992 2666 ft 169 kts 106°
2026-04-26 17:40 37.28950 27.50464 2574 ft 165 kts 107°
2026-04-26 17:40 37.28422 27.52668 2214 ft 153 kts 107°
2026-04-26 17:40 37.28122 27.53923 1986 ft 148 kts 108°
2026-04-26 17:41 37.27829 27.55143 1779 ft 145 kts 108°
2026-04-26 17:41 37.27538 27.56360 1576 ft 146 kts 108°
2026-04-26 17:41 37.27249 27.57571 1358 ft 143 kts 105°
2026-04-26 17:41 37.26967 27.58754 1147 ft 140 kts 105°
2026-04-26 17:42 37.26687 27.59926 948 ft 141 kts 106°
2026-04-26 17:42 37.26408 27.61096 749 ft 139 kts 106°
2026-04-26 17:42 37.26130 27.62259 546 ft 139 kts 106°
2026-04-26 17:42 37.25852 27.63423 345 ft 139 kts 106°
2026-04-26 17:43 37.25577 27.64587 141 ft 138 kts 106°
2026-04-26 17:43 37.25301 27.65730 32 ft 130 kts 107°
2026-04-26 17:43 37.25077 27.66685 28 ft 95 kts 106°
2026-04-26 17:43 37.24943 27.67245 31 ft 27 kts 106°
2026-04-26 17:44 37.24870 27.67427 31 ft 22 kts 130°
2026-04-26 17:44 37.24791 27.67529 31 ft 0 kts 134°
2026-04-26 17:46 37.24789 27.67531 32 ft 1 kts 134°
2026-04-26 17:46 37.24778 27.67546 29 ft 3 kts 134°
2026-04-26 17:46 37.24761 27.67568 30 ft 3 kts 133°
2026-04-26 17:47 37.24744 27.67588 30 ft 3 kts 141°
2026-04-26 17:47 37.24730 27.67602 32 ft 5 kts 139°
2026-04-26 17:47 37.24670 27.67669 30 ft 12 kts 148°
2026-04-26 17:47 37.24583 27.67653 29 ft 14 kts 197°
2026-04-26 17:48 37.24496 27.67616 29 ft 13 kts 208°
2026-04-26 17:48 37.24435 27.67587 29 ft 0 kts 195°
2026-04-26 17:48 37.24432 27.67586 29 ft 0 kts 195°